TimeEDT,TemperatureF,Dew PointF,Humidity,Sea Level PressureIn,VisibilityMPH,Wind Direction,Wind SpeedMPH,Gust SpeedMPH,PrecipitationIn,Events,Conditions,WindDirDegrees,DateUTC
12:52 AM,68.0,64.9,90,30.12,10.0,Calm,Calm,-,N/A,,Overcast,0,2013-05-20 04:52:00
1:52 AM,66.9,64.0,90,30.10,10.0,SE,3.5,-,N/A,,Scattered Clouds,130,2013-05-20 05:52:00
2:52 AM,66.9,63.0,87,30.09,10.0,Calm,Calm,-,N/A,,Partly Cloudy,0,2013-05-20 06:52:00
3:52 AM,66.9,63.0,87,30.08,10.0,SSE,3.5,-,N/A,,Clear,160,2013-05-20 07:52:00
4:52 AM,66.9,64.0,90,30.08,10.0,Variable,3.5,-,N/A,,Clear,0,2013-05-20 08:52:00
5:52 AM,68.0,64.0,87,30.09,10.0,South,3.5,-,N/A,,Mostly Cloudy,170,2013-05-20 09:52:00
6:52 AM,69.1,64.9,87,30.10,5.0,Calm,Calm,-,0.01,Rain,Light Rain,0,2013-05-20 10:52:00
7:24 AM,69.8,64.4,83,30.10,6.0,South,3.5,-,0.00,,Overcast,170,2013-05-20 11:24:00
7:52 AM,70.0,64.9,84,30.11,6.0,WSW,5.8,-,0.00,,Mostly Cloudy,240,2013-05-20 11:52:00
8:18 AM,69.8,66.2,88,30.11,6.0,WSW,5.8,-,N/A,,Mostly Cloudy,240,2013-05-20 12:18:00
8:52 AM,71.1,66.0,84,30.12,6.0,South,9.2,-,N/A,,Mostly Cloudy,190,2013-05-20 12:52:00
9:52 AM,73.0,66.0,79,30.10,7.0,South,9.2,-,N/A,,Mostly Cloudy,190,2013-05-20 13:52:00
10:52 AM,75.0,66.9,76,30.11,7.0,SSW,6.9,-,N/A,,Mostly Cloudy,210,2013-05-20 14:52:00
11:52 AM,75.9,66.9,74,30.10,10.0,Calm,Calm,-,N/A,,Mostly Cloudy,0,2013-05-20 15:52:00
12:36 PM,75.2,66.2,73,30.08,10.0,South,5.8,-,0.00,Rain,Light Rain,180,2013-05-20 16:36:00
12:46 PM,75.2,68.0,78,30.07,10.0,SSW,5.8,-,0.00,,Mostly Cloudy,210,2013-05-20 16:46:00
12:52 PM,75.9,68.0,76,30.07,9.0,SW,4.6,-,0.00,,Mostly Cloudy,220,2013-05-20 16:52:00
1:52 PM,78.1,68.0,71,30.05,10.0,East,3.5,-,N/A,,Mostly Cloudy,90,2013-05-20 17:52:00
2:52 PM,75.9,66.9,74,30.04,10.0,SE,9.2,-,N/A,,Mostly Cloudy,130,2013-05-20 18:52:00
3:52 PM,72.0,66.9,84,30.03,10.0,SE,9.2,-,0.00,,Mostly Cloudy,130,2013-05-20 19:52:00
4:52 PM,80.1,69.1,69,30.01,10.0,SE,6.9,-,N/A,,Mostly Cloudy,140,2013-05-20 20:52:00
4:57 PM,78.8,69.8,74,30.01,10.0,SSE,10.4,-,N/A,Thunderstorm,Thunderstorm,160,2013-05-20 20:57:00
5:14 PM,80.6,69.8,70,30.01,10.0,SSE,10.4,-,N/A,,Mostly Cloudy,160,2013-05-20 21:14:00
5:52 PM,75.0,68.0,79,30.01,10.0,ESE,6.9,-,N/A,,Scattered Clouds,120,2013-05-20 21:52:00
6:52 PM,75.9,68.0,76,30.01,10.0,Calm,Calm,-,N/A,,Mostly Cloudy,0,2013-05-20 22:52:00
7:52 PM,73.0,66.0,79,30.02,10.0,Calm,Calm,-,N/A,,Scattered Clouds,0,2013-05-20 23:52:00
8:52 PM,72.0,66.0,81,30.01,10.0,SSE,3.5,-,N/A,,Scattered Clouds,150,2013-05-21 00:52:00
9:52 PM,72.0,66.0,81,30.01,10.0,South,4.6,-,N/A,,Partly Cloudy,180,2013-05-21 01:52:00
10:52 PM,71.1,64.9,81,30.02,10.0,Calm,Calm,-,N/A,,Scattered Clouds,0,2013-05-21 02:52:00
11:52 PM,70.0,64.9,84,30.02,10.0,South,4.6,-,N/A,,Clear,190,2013-05-21 03:52:00